| time (UTC) | temp F | wind direction | speed MPH | gust MPH | rain 1hr in | rain 24hr in | rain mn in | humidity % | barometer mb |
| 20260905190051 | 88 | 67 | 0.0 | 2.0 | 0.00 | 0.37 | 0.00 | 77 | 1011.3 |
| 20260905184552 | 88 | 147 | 0.0 | 2.0 | 0.00 | 0.39 | 0.00 | 76 | 1011.3 |
| 20260905183050 | 87 | 85 | 0.0 | 2.0 | 0.00 | 0.39 | 0.00 | 77 | 1011.5 |
| 20260905181548 | 86 | 86 | 0.0 | 3.0 | 0.00 | 0.39 | 0.00 | 79 | 1011.7 |
| 20260905180046 | 84 | 225 | 0.0 | 3.0 | 0.00 | 0.39 | 0.00 | 80 | 1012.0 |
| 20260905174544 | 84 | 154 | 0.0 | 4.0 | 0.00 | 0.39 | 0.00 | 80 | 1012.2 |
| 20260905173044 | 83 | 102 | 0.0 | 7.0 | 0.00 | 0.39 | 0.00 | 77 | 1012.7 |
| 20260905171557 | 84 | 334 | 2.0 | 9.0 | 0.00 | 0.39 | 0.00 | 76 | 1012.9 |
| 20260905170042 | 86 | 211 | 0.0 | 5.0 | 0.00 | 0.39 | 0.00 | 80 | 1013.0 |
| 20260905164541 | 86 | 171 | 1.0 | 6.0 | 0.00 | 0.39 | 0.00 | 77 | 1012.8 |
| 20260905163038 | 86 | 246 | 1.0 | 6.0 | 0.00 | 0.39 | 0.00 | 76 | 1012.6 |
| 20260905161540 | 86 | 56 | 5.0 | 10.0 | 0.00 | 0.39 | 0.00 | 78 | 1012.5 |
| 20260905160044 | 87 | 83 | 3.0 | 11.0 | 0.00 | 0.39 | 0.00 | 79 | 1012.5 |
| 20260905154548 | 89 | 292 | 1.0 | 4.0 | 0.00 | 0.39 | 0.00 | 76 | 1012.4 |
| 20260905153031 | 88 | 248 | 1.0 | 4.0 | 0.00 | 0.39 | 0.00 | 78 | 1012.3 |
| 20260905151531 | 88 | 40 | 1.0 | 4.0 | 0.00 | 0.39 | 0.00 | 79 | 1012.3 |
| 20260905150028 | 88 | 60 | 1.0 | 4.0 | 0.00 | 0.39 | 0.00 | 79 | 1012.3 |
| 20260905144537 | 87 | 15 | 0.0 | 3.0 | 0.00 | 0.39 | 0.00 | 81 | 1012.4 |
| 20260905143024 | 87 | 319 | 0.0 | 3.0 | 0.00 | 0.39 | 0.00 | 80 | 1012.3 |
| 20260905141524 | 86 | 325 | 0.0 | 2.0 | 0.00 | 0.39 | 0.00 | 83 | 1012.3 |
| 20260905140016 | 85 | 21 | 0.0 | 2.0 | 0.00 | 0.39 | 0.00 | 86 | 1012.2 |
| 20260905134512 | 83 | 319 | 0.0 | 2.0 | 0.00 | 0.39 | 0.00 | 89 | 1012.0 |
| 20260905133009 | 82 | 2 | 0.0 | 2.0 | 0.00 | 0.39 | 0.00 | 91 | 1012.2 |
| 20260905131505 | 81 | 20 | 1.0 | 3.0 | 0.00 | 0.39 | 0.00 | 93 | 1012.0 |
| 20260905130003 | 80 | 315 | 0.0 | 0.0 | 0.00 | 0.39 | 0.00 | 94 | 1011.9 |
| 20260905124503 | 79 | 315 | 0.0 | 0.0 | 0.00 | 0.39 | 0.00 | 94 | 1011.7 |
| 20260905123105 | 79 | 315 | 0.0 | 0.0 | 0.00 | 0.39 | 0.00 | 94 | 1011.5 |
| 20260905121556 | 78 | 315 | 0.0 | 0.0 | 0.00 | 0.39 | 0.00 | 94 | 1011.5 |
| 20260905120055 | 78 | 315 | 0.0 | 0.0 | 0.00 | 0.39 | 0.00 | 94 | 1011.2 |
| 20260905114608 | 79 | 315 | 0.0 | 0.0 | 0.00 | 0.39 | 0.00 | 94 | 1011.1 |
| 20260905113053 | 79 | 289 | 0.0 | 0.0 | 0.00 | 0.39 | 0.00 | 94 | 1011.0 |
| 20260905111605 | 79 | 289 | 0.0 | 0.0 | 0.00 | 0.39 | 0.00 | 94 | 1010.8 |
| 20260905110049 | 78 | 267 | 0.0 | 0.0 | 0.00 | 0.39 | 0.00 | 94 | 1010.6 |
| 20260905104551 | 78 | 267 | 0.0 | 0.0 | 0.00 | 0.39 | 0.00 | 93 | 1010.7 |
| 20260905103050 | 79 | 267 | 0.0 | 0.0 | 0.00 | 0.39 | 0.00 | 93 | 1010.6 |
| 20260905101546 | 79 | 267 | 0.0 | 0.0 | 0.00 | 0.39 | 0.00 | 93 | 1010.6 |
| 20260905100049 | 79 | 267 | 0.0 | 0.0 | 0.00 | 0.39 | 0.00 | 93 | 1010.7 |
| 20260905094600 | 79 | 267 | 0.0 | 0.0 | 0.00 | 0.39 | 0.00 | 93 | 1010.7 |
| 20260905093046 | 79 | 267 | 0.0 | 0.0 | 0.00 | 0.39 | 0.00 | 93 | 1010.6 |
| 20260905091547 | 79 | 267 | 0.0 | 0.0 | 0.00 | 0.39 | 0.00 | 93 | 1010.5 |
| 20260905090043 | 79 | 267 | 0.0 | 0.0 | 0.00 | 0.39 | 0.00 | 92 | 1010.6 |
| 20260905084545 | 79 | 267 | 0.0 | 0.0 | 0.00 | 0.39 | 0.00 | 92 | 1010.4 |
| 20260905083041 | 79 | 267 | 0.0 | 0.0 | 0.00 | 0.39 | 0.00 | 92 | 1010.3 |
| 20260905081543 | 79 | 267 | 0.0 | 0.0 | 0.00 | 0.39 | 0.00 | 92 | 1010.3 |
| 20260905080051 | 79 | 267 | 0.0 | 0.0 | 0.00 | 0.39 | 0.00 | 92 | 1010.4 |
| 20260905074538 | 79 | 267 | 0.0 | 0.0 | 0.00 | 0.39 | 0.00 | 92 | 1010.4 |
| 20260905073044 | 80 | 267 | 0.0 | 0.0 | 0.00 | 0.39 | 0.00 | 91 | 1010.5 |
| 20260905071535 | 80 | 267 | 0.0 | 0.0 | 0.00 | 0.39 | 0.00 | 91 | 1010.7 |
| 20260905070043 | 80 | 267 | 0.0 | 2.0 | 0.00 | 0.39 | 0.00 | 91 | 1010.9 |
| 20260905064531 | 80 | 267 | 0.0 | 2.0 | 0.00 | 0.39 | 0.00 | 91 | 1011.1 |
| 20260905063029 | 80 | 151 | 0.0 | 0.0 | 0.00 | 0.39 | 0.00 | 91 | 1011.1 |
| 20260905061547 | 81 | 152 | 0.0 | 0.0 | 0.00 | 0.39 | 0.00 | 91 | 1011.2 |
| 20260905060028 | 81 | 151 | 0.0 | 0.0 | 0.00 | 0.39 | 0.00 | 90 | 1011.2 |
| 20260905054529 | 81 | 151 | 0.0 | 0.0 | 0.00 | 0.39 | 0.00 | 90 | 1011.3 |
| 20260905053027 | 81 | 151 | 0.0 | 0.0 | 0.00 | 0.39 | 0.00 | 89 | 1011.2 |
| 20260905051532 | 82 | 151 | 0.0 | 0.0 | 0.00 | 0.39 | 0.00 | 89 | 1011.3 |
| 20260905050023 | 82 | 151 | 0.0 | 0.0 | 0.00 | 0.39 | 0.00 | 89 | 1011.2 |
| 20260905044524 | 82 | 151 | 0.0 | 0.0 | 0.00 | 0.39 | 0.39 | 89 | 1011.4 |
| 20260905043135 | 82 | 151 | 0.0 | 0.0 | 0.00 | 0.39 | 0.39 | 89 | 1011.3 |
| 20260905041520 | 82 | 151 | 0.0 | 0.0 | 0.00 | 0.39 | 0.39 | 89 | 1011.5 |
| 20260905040021 | 82 | 151 | 0.0 | 0.0 | 0.00 | 0.39 | 0.39 | 88 | 1011.6 |
| 20260905034526 | 83 | 151 | 0.0 | 0.0 | 0.00 | 0.39 | 0.39 | 88 | 1011.7 |
| 20260905033018 | 83 | 151 | 0.0 | 0.0 | 0.00 | 0.39 | 0.39 | 88 | 1011.5 |
| 20260905031518 | 83 | 151 | 0.0 | 0.0 | 0.00 | 0.39 | 0.39 | 88 | 1011.8 |
| 20260905030018 | 83 | 151 | 0.0 | 0.0 | 0.00 | 0.39 | 0.39 | 87 | 1011.8 |
| 20260905024517 | 83 | 151 | 0.0 | 0.0 | 0.00 | 0.39 | 0.39 | 86 | 1011.6 |
| 20260905023017 | 84 | 151 | 0.0 | 0.0 | 0.00 | 0.39 | 0.39 | 85 | 1011.5 |
| 20260905021515 | 84 | 151 | 0.0 | 0.0 | 0.00 | 0.39 | 0.39 | 84 | 1011.4 |
| 20260905020016 | 84 | 151 | 0.0 | 0.0 | 0.00 | 0.39 | 0.39 | 84 | 1011.1 |
| 20260905014519 | 85 | 151 | 0.0 | 0.0 | 0.00 | 0.39 | 0.39 | 83 | 1011.0 |
| 20260905013014 | 85 | 151 | 0.0 | 0.0 | 0.00 | 0.39 | 0.39 | 82 | 1010.9 |
| 20260905011514 | 85 | 151 | 0.0 | 0.0 | 0.00 | 0.39 | 0.39 | 81 | 1010.8 |
| 20260905010018 | 86 | 151 | 0.0 | 0.0 | 0.00 | 0.39 | 0.39 | 80 | 1010.6 |
| 20260905004514 | 86 | 151 | 0.0 | 1.0 | 0.00 | 0.39 | 0.39 | 80 | 1010.5 |
| 20260905003019 | 87 | 142 | 0.0 | 2.0 | 0.00 | 0.39 | 0.39 | 80 | 1010.4 |
| 20260905001513 | 87 | 160 | 0.0 | 1.0 | 0.00 | 0.39 | 0.39 | 79 | 1010.5 |
| 20260905000028 | 88 | 210 | 0.0 | 2.0 | 0.00 | 0.39 | 0.39 | 79 | 1010.4 |
| 20260904234511 | 88 | 163 | 0.0 | 0.0 | 0.00 | 0.39 | 0.39 | 79 | 1010.4 |
| 20260904233011 | 88 | 131 | 0.0 | 3.0 | 0.00 | 0.39 | 0.39 | 78 | 1010.3 |
| 20260904231512 | 88 | 130 | 0.0 | 2.0 | 0.00 | 0.39 | 0.39 | 78 | 1010.4 |
| 20260904230013 | 89 | 127 | 0.0 | 2.0 | 0.00 | 0.39 | 0.39 | 77 | 1010.3 |
| 20260904224516 | 89 | 131 | 1.0 | 3.0 | 0.00 | 0.39 | 0.39 | 75 | 1010.4 |
| 20260904223013 | 90 | 171 | 0.0 | 2.0 | 0.00 | 0.39 | 0.39 | 74 | 1010.4 |
| 20260904221510 | 89 | 138 | 0.0 | 2.0 | 0.00 | 0.39 | 0.39 | 73 | 1010.2 |
| 20260904220013 | 89 | 154 | 0.0 | 2.0 | 0.00 | 0.39 | 0.39 | 74 | 1010.2 |
| 20260904214513 | 89 | 101 | 1.0 | 13.0 | 0.00 | 0.39 | 0.39 | 77 | 1010.4 |
| 20260904213005 | 89 | 115 | 0.0 | 3.0 | 0.00 | 0.39 | 0.39 | 77 | 1010.5 |
| 20260904211508 | 89 | 167 | 0.0 | 4.0 | 0.00 | 0.39 | 0.39 | 75 | 1010.6 |
| 20260904210004 | 88 | 130 | 1.0 | 4.0 | 0.00 | 0.40 | 0.39 | 77 | 1010.9 |
| 20260904204503 | 85 | 141 | 0.0 | 0.0 | 0.00 | 0.40 | 0.39 | 82 | 1011.0 |
| 20260904203003 | 82 | 133 | 0.0 | 1.0 | 0.01 | 0.40 | 0.39 | 87 | 1011.2 |
| 20260904201502 | 82 | 50 | 0.0 | 1.0 | 0.12 | 0.40 | 0.39 | 94 | 1011.5 |
| 20260904200006 | 80 | 50 | 0.0 | 2.0 | 0.37 | 0.50 | 0.39 | 93 | 1011.5 |
| 20260904194502 | 80 | 327 | 0.0 | 0.0 | 0.39 | 0.50 | 0.39 | 94 | 1011.7 |
| 20260904193002 | 77 | 40 | 0.0 | 4.0 | 0.38 | 0.49 | 0.38 | 91 | 1011.9 |
| 20260904191558 | 77 | 215 | 1.0 | 8.0 | 0.28 | 0.39 | 0.28 | 84 | 1012.2 |